Time,TemperatureF,DewpointF,PressureIn,WindDirection,WindDirectionDegrees,WindSpeedMPH,WindSpeedGustMPH,Humidity,HourlyPrecipIn,Conditions,Clouds,dailyrainin,SolarRadiationWatts/m^2,SoftwareType,DateUTC
2013-01-22 00:02:00,30.0,11.0,-100.00,WNW,293,4.0,11.0,45,0.00,,,0.00,129.000000,,2013-01-22 07:02:00,
2013-01-22 00:12:00,30.0,11.0,-100.00,WNW,293,4.0,11.0,45,0.00,,,0.00,129.000000,,2013-01-22 07:12:00,
2013-01-22 00:22:00,30.0,11.0,-100.00,WNW,293,4.0,11.0,45,0.00,,,0.00,129.000000,,2013-01-22 07:22:00,
2013-01-22 00:32:00,30.0,11.0,-100.00,WNW,293,4.0,11.0,45,0.00,,,0.00,129.000000,,2013-01-22 07:32:00,
2013-01-22 00:53:00,33.0,12.0,-100.00,WNW,298,6.0,14.0,41,0.00,,,0.00,151.000000,,2013-01-22 07:53:00,
2013-01-22 01:02:00,33.0,12.0,-100.00,WNW,298,6.0,14.0,41,0.00,,,0.00,151.000000,,2013-01-22 08:02:00,
2013-01-22 01:12:00,33.0,12.0,-100.00,WNW,298,6.0,14.0,41,0.00,,,0.00,151.000000,,2013-01-22 08:12:00,
2013-01-22 01:22:00,33.0,12.0,-100.00,WNW,298,6.0,14.0,41,0.00,,,0.00,151.000000,,2013-01-22 08:22:00,
2013-01-22 01:32:00,33.0,12.0,-100.00,WNW,298,6.0,14.0,41,0.00,,,0.00,151.000000,,2013-01-22 08:32:00,
2013-01-22 01:53:00,33.0,10.0,-100.00,WNW,291,7.0,20.0,37,0.00,,,0.00,122.000000,,2013-01-22 08:53:00,
2013-01-22 02:02:00,33.0,10.0,-100.00,WNW,291,7.0,20.0,37,0.00,,,0.00,122.000000,,2013-01-22 09:02:00,
2013-01-22 02:12:00,33.0,10.0,-100.00,WNW,291,7.0,20.0,37,0.00,,,0.00,122.000000,,2013-01-22 09:12:00,
2013-01-22 02:22:00,33.0,10.0,-100.00,WNW,291,7.0,20.0,37,0.00,,,0.00,122.000000,,2013-01-22 09:22:00,
2013-01-22 02:32:00,33.0,10.0,-100.00,WNW,291,7.0,20.0,37,0.00,,,0.00,122.000000,,2013-01-22 09:32:00,
2013-01-22 02:52:00,36.0,10.0,-100.00,WNW,282,10.0,25.0,34,0.00,,,0.00,107.000000,,2013-01-22 09:52:00,
2013-01-22 03:02:00,36.0,10.0,-100.00,WNW,282,10.0,25.0,34,0.00,,,0.00,107.000000,,2013-01-22 10:02:00,
2013-01-22 03:12:00,36.0,10.0,-100.00,WNW,282,10.0,25.0,34,0.00,,,0.00,107.000000,,2013-01-22 10:12:00,
2013-01-22 03:22:00,36.0,10.0,-100.00,WNW,282,10.0,25.0,34,0.00,,,0.00,107.000000,,2013-01-22 10:22:00,
2013-01-22 03:32:00,36.0,10.0,-100.00,WNW,282,10.0,25.0,34,0.00,,,0.00,107.000000,,2013-01-22 10:32:00,
2013-01-22 03:53:00,37.0,11.0,-100.00,WNW,287,8.0,24.0,34,0.00,,,0.00,80.000000,,2013-01-22 10:53:00,
2013-01-22 04:02:00,37.0,11.0,-100.00,WNW,287,8.0,24.0,34,0.00,,,0.00,80.000000,,2013-01-22 11:02:00,
2013-01-22 04:12:00,37.0,11.0,-100.00,WNW,287,8.0,24.0,34,0.00,,,0.00,80.000000,,2013-01-22 11:12:00,
2013-01-22 04:22:00,37.0,11.0,-100.00,WNW,287,8.0,24.0,34,0.00,,,0.00,80.000000,,2013-01-22 11:22:00,
2013-01-22 04:33:00,37.0,11.0,-100.00,WNW,287,8.0,24.0,34,0.00,,,0.00,80.000000,,2013-01-22 11:33:00,
2013-01-22 04:53:00,35.0,11.0,-100.00,WNW,299,10.0,19.0,37,0.00,,,0.00,51.000000,,2013-01-22 11:53:00,
2013-01-22 05:04:00,35.0,11.0,-100.00,WNW,299,10.0,19.0,37,0.00,,,0.00,51.000000,,2013-01-22 12:04:00,
2013-01-22 05:12:00,35.0,11.0,-100.00,WNW,299,10.0,19.0,37,0.00,,,0.00,51.000000,,2013-01-22 12:12:00,
2013-01-22 05:23:00,35.0,11.0,-100.00,WNW,299,10.0,19.0,37,0.00,,,0.00,51.000000,,2013-01-22 12:23:00,
2013-01-22 05:33:00,35.0,11.0,-100.00,WNW,299,10.0,19.0,37,0.00,,,0.00,51.000000,,2013-01-22 12:33:00,
2013-01-22 05:53:00,34.0,9.0,-100.00,WNW,294,11.0,25.0,35,0.00,,,0.00,54.000000,,2013-01-22 12:53:00,
2013-01-22 06:04:00,34.0,9.0,-100.00,WNW,294,11.0,25.0,35,0.00,,,0.00,54.000000,,2013-01-22 13:04:00,
2013-01-22 06:13:00,34.0,9.0,-100.00,WNW,294,11.0,25.0,35,0.00,,,0.00,54.000000,,2013-01-22 13:13:00,
2013-01-22 06:23:00,34.0,9.0,-100.00,WNW,294,11.0,25.0,35,0.00,,,0.00,54.000000,,2013-01-22 13:23:00,
2013-01-22 06:33:00,34.0,9.0,-100.00,WNW,294,11.0,25.0,35,0.00,,,0.00,54.000000,,2013-01-22 13:33:00,
2013-01-22 06:53:00,36.0,9.0,-100.00,WNW,299,8.0,25.0,32,0.00,,,0.00,56.000000,,2013-01-22 13:53:00,
2013-01-22 07:03:00,36.0,9.0,-100.00,WNW,299,8.0,25.0,32,0.00,,,0.00,56.000000,,2013-01-22 14:03:00,
2013-01-22 07:13:00,36.0,9.0,-100.00,WNW,299,8.0,25.0,32,0.00,,,0.00,56.000000,,2013-01-22 14:13:00,
2013-01-22 07:23:00,36.0,9.0,-100.00,WNW,299,8.0,25.0,32,0.00,,,0.00,56.000000,,2013-01-22 14:23:00,
2013-01-22 07:34:00,36.0,9.0,-100.00,WNW,299,8.0,25.0,32,0.00,,,0.00,56.000000,,2013-01-22 14:34:00,
2013-01-22 07:54:00,35.0,6.0,-100.00,WNW,292,3.0,23.0,29,0.00,,,0.00,36.000000,,2013-01-22 14:54:00,
2013-01-22 08:03:00,35.0,6.0,-100.00,WNW,292,3.0,23.0,29,0.00,,,0.00,36.000000,,2013-01-22 15:03:00,
2013-01-22 08:13:00,35.0,6.0,-100.00,WNW,292,3.0,23.0,29,0.00,,,0.00,36.000000,,2013-01-22 15:13:00,
2013-01-22 08:23:00,35.0,6.0,-100.00,WNW,292,3.0,23.0,29,0.00,,,0.00,36.000000,,2013-01-22 15:23:00,
2013-01-22 08:34:00,35.0,6.0,-100.00,WNW,292,3.0,23.0,29,0.00,,,0.00,36.000000,,2013-01-22 15:34:00,
2013-01-22 08:53:00,36.0,4.0,-100.00,WNW,299,6.0,12.0,26,0.00,,,0.00,72.000000,,2013-01-22 15:53:00,
2013-01-22 09:03:00,36.0,4.0,-100.00,WNW,299,6.0,12.0,26,0.00,,,0.00,72.000000,,2013-01-22 16:03:00,
2013-01-22 09:13:00,36.0,4.0,-100.00,WNW,299,6.0,12.0,26,0.00,,,0.00,72.000000,,2013-01-22 16:13:00,
2013-01-22 09:23:00,36.0,4.0,-100.00,WNW,299,6.0,12.0,26,0.00,,,0.00,72.000000,,2013-01-22 16:23:00,
2013-01-22 09:33:00,36.0,4.0,-100.00,WNW,299,6.0,12.0,26,0.00,,,0.00,72.000000,,2013-01-22 16:33:00,
2013-01-22 09:54:00,41.0,7.0,-100.00,WNW,288,6.0,20.0,24,0.00,,,0.00,287.000000,,2013-01-22 16:54:00,
2013-01-22 10:03:00,41.0,7.0,-100.00,WNW,288,6.0,20.0,24,0.00,,,0.00,287.000000,,2013-01-22 17:03:00,
2013-01-22 10:13:00,41.0,7.0,-100.00,WNW,288,6.0,20.0,24,0.00,,,0.00,287.000000,,2013-01-22 17:13:00,
2013-01-22 10:23:00,41.0,7.0,-100.00,WNW,288,6.0,20.0,24,0.00,,,0.00,287.000000,,2013-01-22 17:23:00,
2013-01-22 10:34:00,41.0,7.0,-100.00,WNW,288,6.0,20.0,24,0.00,,,0.00,287.000000,,2013-01-22 17:34:00,
2013-01-22 10:54:00,43.0,9.0,-100.00,WNW,291,7.0,16.0,24,0.00,,,0.00,341.000000,,2013-01-22 17:54:00,
2013-01-22 11:04:00,43.0,9.0,-100.00,WNW,291,7.0,16.0,24,0.00,,,0.00,341.000000,,2013-01-22 18:04:00,
2013-01-22 11:13:00,43.0,9.0,-100.00,WNW,291,7.0,16.0,24,0.00,,,0.00,341.000000,,2013-01-22 18:13:00,
2013-01-22 11:23:00,43.0,9.0,-100.00,WNW,291,7.0,16.0,24,0.00,,,0.00,341.000000,,2013-01-22 18:23:00,
2013-01-22 11:33:00,43.0,9.0,-100.00,WNW,291,7.0,16.0,24,0.00,,,0.00,341.000000,,2013-01-22 18:33:00,
2013-01-22 12:03:00,47.0,9.0,-100.00,WNW,292,5.0,15.0,21,0.00,,,0.00,201.000000,,2013-01-22 19:03:00,
2013-01-22 12:13:00,47.0,9.0,-100.00,WNW,292,5.0,15.0,21,0.00,,,0.00,201.000000,,2013-01-22 19:13:00,
2013-01-22 12:23:00,47.0,9.0,-100.00,WNW,292,5.0,15.0,21,0.00,,,0.00,201.000000,,2013-01-22 19:23:00,
2013-01-22 12:33:00,47.0,9.0,-100.00,WNW,292,5.0,15.0,21,0.00,,,0.00,201.000000,,2013-01-22 19:33:00,
2013-01-22 12:54:00,47.0,7.0,-100.00,WNW,288,9.0,23.0,19,0.00,,,0.00,90.000000,,2013-01-22 19:54:00,
2013-01-22 13:03:00,47.0,7.0,-100.00,WNW,288,9.0,23.0,19,0.00,,,0.00,90.000000,,2013-01-22 20:03:00,
2013-01-22 13:13:00,47.0,7.0,-100.00,WNW,288,9.0,23.0,19,0.00,,,0.00,90.000000,,2013-01-22 20:13:00,
2013-01-22 13:23:00,47.0,7.0,-100.00,WNW,288,9.0,23.0,19,0.00,,,0.00,90.000000,,2013-01-22 20:23:00,
2013-01-22 13:33:00,47.0,7.0,-100.00,WNW,288,9.0,23.0,19,0.00,,,0.00,90.000000,,2013-01-22 20:33:00,
2013-01-22 13:53:00,46.0,7.0,-100.00,West,278,11.0,24.0,20,0.00,,,0.00,56.000000,,2013-01-22 20:53:00,
2013-01-22 14:03:00,46.0,7.0,-100.00,West,278,11.0,24.0,20,0.00,,,0.00,56.000000,,2013-01-22 21:03:00,
2013-01-22 14:13:00,46.0,7.0,-100.00,West,278,11.0,24.0,20,0.00,,,0.00,56.000000,,2013-01-22 21:13:00,
2013-01-22 14:23:00,46.0,7.0,-100.00,West,278,11.0,24.0,20,0.00,,,0.00,56.000000,,2013-01-22 21:23:00,
2013-01-22 14:33:00,46.0,7.0,-100.00,West,278,11.0,24.0,20,0.00,,,0.00,56.000000,,2013-01-22 21:33:00,
2013-01-22 14:53:00,44.0,7.0,-100.00,West,272,10.0,24.0,21,0.00,,,0.00,23.000000,,2013-01-22 21:53:00,
2013-01-22 15:03:00,44.0,7.0,-100.00,West,272,10.0,24.0,21,0.00,,,0.00,23.000000,,2013-01-22 22:03:00,
2013-01-22 15:13:00,44.0,7.0,-100.00,West,272,10.0,24.0,21,0.00,,,0.00,23.000000,,2013-01-22 22:13:00,
2013-01-22 15:22:00,44.0,7.0,-100.00,West,272,10.0,24.0,21,0.00,,,0.00,23.000000,,2013-01-22 22:22:00,
2013-01-22 15:32:00,44.0,7.0,-100.00,West,272,10.0,24.0,21,0.00,,,0.00,23.000000,,2013-01-22 22:32:00,
2013-01-22 15:53:00,46.0,4.0,-100.00,WNW,299,12.0,31.0,17,0.00,,,0.00,13.000000,,2013-01-22 22:53:00,
2013-01-22 16:03:00,46.0,4.0,-100.00,WNW,299,12.0,31.0,17,0.00,,,0.00,13.000000,,2013-01-22 23:03:00,
2013-01-22 16:12:00,46.0,4.0,-100.00,WNW,299,12.0,31.0,17,0.00,,,0.00,13.000000,,2013-01-22 23:12:00,
2013-01-22 16:24:00,46.0,4.0,-100.00,WNW,299,12.0,31.0,17,0.00,,,0.00,13.000000,,2013-01-22 23:24:00,
2013-01-22 16:33:00,46.0,4.0,-100.00,WNW,299,12.0,31.0,17,0.00,,,0.00,13.000000,,2013-01-22 23:33:00,
2013-01-22 16:53:00,42.0,2.0,-100.00,WNW,296,7.0,30.0,18,0.00,,,0.00,4.000000,,2013-01-22 23:53:00,
2013-01-22 17:03:00,42.0,2.0,-100.00,WNW,296,7.0,30.0,18,0.00,,,0.00,4.000000,,2013-01-23 00:03:00,
2013-01-22 17:12:00,42.0,2.0,-100.00,WNW,296,7.0,30.0,18,0.00,,,0.00,4.000000,,2013-01-23 00:12:00,
2013-01-22 17:22:00,42.0,2.0,-100.00,WNW,296,7.0,30.0,18,0.00,,,0.00,4.000000,,2013-01-23 00:22:00,
2013-01-22 17:33:00,42.0,2.0,-100.00,WNW,296,7.0,30.0,18,0.00,,,0.00,4.000000,,2013-01-23 00:33:00,
2013-01-22 17:52:00,40.0,6.0,-100.00,WNW,297,5.0,14.0,24,0.00,,,0.00,5.000000,,2013-01-23 00:52:00,
2013-01-22 18:03:00,40.0,6.0,-100.00,WNW,297,5.0,14.0,24,0.00,,,0.00,5.000000,,2013-01-23 01:03:00,
2013-01-22 18:13:00,40.0,6.0,-100.00,WNW,297,5.0,14.0,24,0.00,,,0.00,5.000000,,2013-01-23 01:13:00,
2013-01-22 18:23:00,40.0,6.0,-100.00,WNW,297,5.0,14.0,24,0.00,,,0.00,5.000000,,2013-01-23 01:23:00,
2013-01-22 18:33:00,40.0,6.0,-100.00,WNW,297,5.0,14.0,24,0.00,,,0.00,5.000000,,2013-01-23 01:33:00,
2013-01-22 18:53:00,38.0,6.0,-100.00,WNW,299,4.0,14.0,26,0.00,,,0.00,9.000000,,2013-01-23 01:53:00,
2013-01-22 19:03:00,38.0,6.0,-100.00,WNW,299,4.0,14.0,26,0.00,,,0.00,9.000000,,2013-01-23 02:03:00,
2013-01-22 19:12:00,38.0,6.0,-100.00,WNW,299,4.0,14.0,26,0.00,,,0.00,9.000000,,2013-01-23 02:12:00,
2013-01-22 19:23:00,38.0,6.0,-100.00,WNW,299,4.0,14.0,26,0.00,,,0.00,9.000000,,2013-01-23 02:23:00,
2013-01-22 19:33:00,38.0,6.0,-100.00,WNW,299,4.0,14.0,26,0.00,,,0.00,9.000000,,2013-01-23 02:33:00,
2013-01-22 19:53:00,38.0,6.0,-100.00,WNW,293,7.0,17.0,26,0.00,,,0.00,13.000000,,2013-01-23 02:53:00,
2013-01-22 20:03:00,38.0,6.0,-100.00,WNW,293,7.0,17.0,26,0.00,,,0.00,13.000000,,2013-01-23 03:03:00,
2013-01-22 20:13:00,38.0,6.0,-100.00,WNW,293,7.0,17.0,26,0.00,,,0.00,13.000000,,2013-01-23 03:13:00,
2013-01-22 20:23:00,38.0,6.0,-100.00,WNW,293,7.0,17.0,26,0.00,,,0.00,13.000000,,2013-01-23 03:23:00,
2013-01-22 20:33:00,38.0,6.0,-100.00,WNW,293,7.0,17.0,26,0.00,,,0.00,13.000000,,2013-01-23 03:33:00,
2013-01-22 20:53:00,37.0,4.0,-100.00,WNW,287,8.0,16.0,24,0.00,,,0.00,18.000000,,2013-01-23 03:53:00,
2013-01-22 21:03:00,37.0,4.0,-100.00,WNW,287,8.0,16.0,24,0.00,,,0.00,18.000000,,2013-01-23 04:03:00,
2013-01-22 21:12:00,37.0,4.0,-100.00,WNW,287,8.0,16.0,24,0.00,,,0.00,18.000000,,2013-01-23 04:12:00,
2013-01-22 21:22:00,37.0,4.0,-100.00,WNW,287,8.0,16.0,24,0.00,,,0.00,18.000000,,2013-01-23 04:22:00,
2013-01-22 21:32:00,37.0,4.0,-100.00,WNW,287,8.0,16.0,24,0.00,,,0.00,18.000000,,2013-01-23 04:32:00,
2013-01-22 21:53:00,36.0,3.0,-100.00,WNW,302,7.0,16.0,24,0.00,,,0.00,17.000000,,2013-01-23 04:53:00,
2013-01-22 22:03:00,36.0,3.0,-100.00,WNW,302,7.0,16.0,24,0.00,,,0.00,17.000000,,2013-01-23 05:03:00,
2013-01-22 22:12:00,36.0,3.0,-100.00,WNW,302,7.0,16.0,24,0.00,,,0.00,17.000000,,2013-01-23 05:12:00,
2013-01-22 22:22:00,36.0,3.0,-100.00,WNW,302,7.0,16.0,24,0.00,,,0.00,17.000000,,2013-01-23 05:22:00,
2013-01-22 22:33:00,36.0,3.0,-100.00,WNW,302,7.0,16.0,24,0.00,,,0.00,17.000000,,2013-01-23 05:33:00,
2013-01-22 23:02:00,37.0,2.0,-100.00,ENE,68,2.0,13.0,22,0.00,,,0.00,18.000000,,2013-01-23 06:02:00,
2013-01-22 23:12:00,37.0,2.0,-100.00,ENE,68,2.0,13.0,22,0.00,,,0.00,18.000000,,2013-01-23 06:12:00,
2013-01-22 23:22:00,37.0,2.0,-100.00,ENE,68,2.0,13.0,22,0.00,,,0.00,18.000000,,2013-01-23 06:22:00,
2013-01-22 23:32:00,37.0,2.0,-100.00,ENE,68,2.0,13.0,22,0.00,,,0.00,18.000000,,2013-01-23 06:32:00,
2013-01-22 23:53:00,34.0,1.0,-100.00,SW,233,3.0,6.0,24,0.00,,,0.00,18.000000,,2013-01-23 06:53:00,